Regional Weather Roundup
Issued by NWS Green Bay, WI

Home | Current Version | Previous Version | Text Only | Print | Product List | Glossary On
Versions: 1 2 3 4 5 6 7 8 9 10 11 12 13 14 15 16 17 18 19 20 21 22 23 24 25 26 27 28 29 30 31 32 33 34 35 36 37 38 39 40 41 42 43 44 45 46 47 48 49 50
000
ASUS43 KGRB 230411
RWRGRB

NORTH-CENTRAL AND NORTHEAST WISCONSIN REGIONAL WEATHER ROUNDUP
NATIONAL WEATHER SERVICE GREEN BAY WI
1000 PM CST SUN JAN 22 2017

WIZ005-009-010>012-018-019-230500-
NORTH CENTRAL WISCONSIN

CITY           SKY/WX    TMP DP  RH WIND       PRES   REMARKS
IRONWOOD       CLOUDY    33  32  96 W5        29.71S FOG
MANITOWISH WTR CLOUDY    32  32 100 CALM      29.70R
ARBOR VITAE    CLOUDY    34  33  96 CALM      29.69S
EAGLE RIVER    CLOUDY    33  33 100 NW3       29.68R
LAND O LAKES   CLOUDY    34  34 100 NW3       29.70R
RHINELANDER    CLOUDY    35  35 100 CALM      29.69R
PHILLIPS       CLOUDY    33  33 100 CALM      29.70S
ANTIGO         CLOUDY    34  34 100 N6        29.69S
TOMAHAWK       CLOUDY    33  32  96 CALM      29.70S
MERRILL        CLOUDY    35  35 100 CALM        N/A
$$

WIZ013-073-230500-
NORTHEAST WISCONSIN

CITY           SKY/WX    TMP DP  RH WIND       PRES   REMARKS
IRON MOUNTAIN  CLOUDY    36  33  89 NW5       29.66S
MARINETTE      NOT AVBL
OCONTO         CLOUDY    33  33  99 CALM      29.68S VSB 1/2
$$

WIZ017-030-035>037-045-230500-
CENTRAL WISCONSIN

CITY           SKY/WX    TMP DP  RH WIND       PRES   REMARKS
MEDFORD        CLOUDY    33  33  99 NW7       29.70R
WAUSAU         CLOUDY    35  35 100 NW3       29.69S FOG
MOSINEE        CLOUDY    34  34 100 NW5       29.71R FOG
MARSHFIELD     FOG       34  33  96 NW6       29.70R VSB 1/4
WISC RAPIDS    CLOUDY    35  35 100 NW8       29.72S FOG
STEVENS POINT  CLOUDY    34  34 100 NW5       29.70S FOG
WAUPACA        CLOUDY    38  37  97 CALM      29.69S
SHAWANO        CLOUDY    39  38  95 NW3       29.69R
CLINTONVILLE   CLOUDY    36  36 100 NW6       29.68S
WAUTOMA        CLOUDY    36  36 100 NW7       29.71S FOG
$$

WIZ038-039-048-051-230500-
FOX VALLEY

CITY           SKY/WX    TMP DP  RH WIND       PRES   REMARKS
NWS GREEN BAY  FOG       37  37 100 CALM      29.69R VSB 3/4
APPLETON       CLOUDY    36  36 100 NW6       29.67S FOG
OSHKOSH        CLOUDY    36  35  96 W3        29.69R
FOND DU LAC    CLOUDY    37  34  89 NW5       29.70R
$$

WIZ022-050-052-230500-
EAST CENTRAL WISCONSIN

CITY           SKY/WX    TMP DP  RH WIND       PRES   REMARKS
EPHRAIM        FOG       34  34 100 N3        29.67R VSB 1/4
WASHINGTON ISL FOG       33  33 100 CALM      29.68R VSB 1/4
STURGEON BAY   FOG       35  35 100 CALM      29.69R VSB 1/4
MANITOWOC      CLOUDY    37  36  96 MISG      29.70R
SHEBOYGAN      CLOUDY    37  36  96 CALM      29.70R FOG
$$

LMZ563-521-522-541>543-230500-
LAKESHORE

STATION/POSITION TIME  TEMP    WIND        PRES    VSBY  WAVE
                       AIR SEA DIR/SP/G                  HT/PER
                 (UTC) (F)     (DEG/KT/KT) (MB)    (MI)  (FT/S)
SHEBOYGAN LKSHOR 0400   38     290/  5/  6 1005.9R
KEWAUNEE LKSHORE 0342   36      CALM  /  3 1004.8R
NORTHPORT PIER   0340   33      CALM  /  3 1005.1S
SISTER BAY LKSHO 0320   33        CALM       N/A
MENOMINEE LKSHOR 0342          340/  2/  3 1004.4S
$$



USA.gov is the U.S. government's official web portal to all federal, state and local government web resources and services.